status,avgMeasuredTime,avgSpeed,extID,medianMeasuredTime,TIMESTAMP,vehicleCount,_id,REPORT_ID
OK,85,34,947,85,2014-08-01T08:00:00,5,20747002,180926
OK,85,34,947,85,2014-08-01T08:05:00,3,20747451,180926
OK,74,39,947,74,2014-08-01T08:10:00,3,20747824,180926
OK,72,40,947,72,2014-08-01T08:15:00,6,20748273,180926
OK,75,39,947,75,2014-08-01T08:20:00,7,20748722,180926
OK,79,37,947,79,2014-08-01T08:25:00,8,20749171,180926
OK,70,41,947,70,2014-08-01T08:30:00,7,20749620,180926
OK,75,39,947,75,2014-08-01T08:35:00,7,20750069,180926
OK,73,40,947,73,2014-08-01T08:40:00,8,20750518,180926
OK,76,38,947,76,2014-08-01T08:45:00,9,20750967,180926
OK,76,38,947,76,2014-08-01T08:50:00,8,20751416,180926
OK,73,40,947,73,2014-08-01T08:55:00,10,20751865,180926
OK,73,40,947,73,2014-08-01T09:00:00,9,20752314,180926
OK,78,37,947,78,2014-08-01T09:05:00,4,20752763,180926
OK,75,39,947,75,2014-08-01T09:10:00,5,20753212,180926
OK,92,31,947,92,2014-08-01T09:20:00,14,20754110,180926
OK,73,40,947,73,2014-08-01T09:25:00,8,20754559,180926
OK,81,36,947,81,2014-08-01T09:30:00,10,20755008,180926
OK,80,36,947,80,2014-08-01T09:35:00,11,20755457,180926
OK,80,36,947,80,2014-08-01T09:40:00,9,20755906,180926
OK,75,39,947,75,2014-08-01T09:45:00,9,20756355,180926
OK,76,38,947,76,2014-08-01T09:50:00,9,20756804,180926
OK,68,43,947,68,2014-08-01T09:55:00,4,20757253,180926
OK,68,43,947,68,2014-08-01T10:00:00,4,20757702,180926
OK,77,38,947,77,2014-08-01T10:05:00,4,20758151,180926
OK,87,33,947,87,2014-08-01T10:15:00,5,20759049,180926
OK,82,35,947,82,2014-08-01T10:20:00,6,20759498,180926
OK,79,37,947,79,2014-08-01T10:25:00,5,20759947,180926
OK,71,41,947,71,2014-08-01T10:30:00,9,20760396,180926
OK,82,35,947,82,2014-08-01T10:35:00,9,20760845,180926
OK,82,35,947,82,2014-08-01T10:40:00,7,20761294,180926
OK,72,40,947,72,2014-08-01T10:45:00,8,20761743,180926
OK,72,40,947,72,2014-08-01T10:50:00,10,20762192,180926
OK,73,40,947,73,2014-08-01T10:55:00,7,20762641,180926
OK,82,35,947,82,2014-08-01T11:00:00,4,20763090,180926
OK,83,35,947,83,2014-08-01T11:05:00,13,20763539,180926
OK,83,35,947,83,2014-08-01T11:10:00,12,20763988,180926
OK,76,38,947,76,2014-08-01T11:15:00,6,20764436,180926
OK,74,39,947,74,2014-08-01T11:20:00,5,20764885,180926
OK,73,40,947,73,2014-08-01T11:25:00,11,20765334,180926
OK,69,42,947,69,2014-08-01T11:30:00,9,20765783,180926
OK,72,40,947,72,2014-08-01T11:35:00,2,20766232,180926
OK,126,23,947,126,2014-08-01T11:40:00,2,20766681,180926
OK,77,38,947,77,2014-08-01T11:45:00,10,20767130,180926
OK,79,37,947,79,2014-08-01T11:50:00,10,20767579,180926
OK,72,40,947,72,2014-08-01T11:55:00,6,20768028,180926
OK,77,38,947,77,2014-08-01T12:00:00,9,20768477,180926
OK,75,39,947,75,2014-08-01T12:10:00,10,20769375,180926
OK,87,33,947,87,2014-08-01T12:15:00,11,20769824,180926
OK,104,28,947,104,2014-08-01T12:20:00,7,20770273,180926
OK,105,27,947,105,2014-08-01T12:25:00,2,20770722,180926
OK,101,28,947,101,2014-08-01T12:30:00,5,20771171,180926
OK,102,28,947,102,2014-08-01T12:35:00,10,20771620,180926
OK,107,27,947,107,2014-08-01T12:40:00,8,20772069,180926
OK,114,25,947,114,2014-08-01T12:45:00,3,20772518,180926
OK,104,28,947,104,2014-08-01T12:50:00,5,20772967,180926
OK,92,31,947,92,2014-08-01T12:55:00,4,20773416,180926
OK,97,30,947,97,2014-08-01T13:00:00,10,20773865,180926
OK,103,28,947,103,2014-08-01T13:05:00,14,20774314,180926
OK,107,27,947,107,2014-08-01T13:10:00,5,20774763,180926
OK,106,27,947,106,2014-08-01T13:15:00,2,20775212,180926
OK,111,26,947,111,2014-08-01T13:20:00,1,20775661,180926
OK,104,28,947,104,2014-08-01T13:25:00,5,20776110,180926
OK,105,27,947,105,2014-08-01T13:30:00,10,20776559,180926
OK,104,28,947,104,2014-08-01T13:35:00,8,20777008,180926
OK,103,28,947,103,2014-08-01T13:40:00,5,20777457,180926
OK,110,26,947,110,2014-08-01T13:45:00,9,20777906,180926
OK,114,25,947,114,2014-08-01T13:50:00,6,20778355,180926
OK,102,28,947,102,2014-08-01T14:00:00,8,20779253,180926
OK,101,28,947,101,2014-08-01T14:05:00,10,20779702,180926
OK,96,30,947,96,2014-08-01T14:10:00,9,20780151,180926
OK,99,29,947,99,2014-08-01T14:15:00,4,20780600,180926
OK,105,27,947,105,2014-08-01T14:20:00,4,20781049,180926
OK,95,30,947,95,2014-08-01T14:25:00,5,20781498,180926
OK,93,31,947,93,2014-08-01T14:30:00,5,20781947,180926
OK,89,32,947,89,2014-08-01T14:35:00,3,20782396,180926
OK,103,28,947,103,2014-08-01T14:40:00,3,20782845,180926
OK,98,29,947,98,2014-08-01T14:45:00,5,20783294,180926
OK,95,30,947,95,2014-08-01T14:50:00,1,20783743,180926
OK,111,26,947,111,2014-08-01T15:00:00,10,20784641,180926
OK,106,27,947,106,2014-08-01T15:05:00,4,20785090,180926
OK,99,29,947,99,2014-08-01T15:10:00,3,20785539,180926
OK,108,27,947,108,2014-08-01T15:15:00,2,20785988,180926
OK,96,30,947,96,2014-08-01T15:20:00,3,20786437,180926
OK,95,30,947,95,2014-08-01T15:25:00,5,20786886,180926
OK,77,38,947,77,2014-08-01T15:30:00,6,20787335,180926
OK,76,38,947,76,2014-08-01T15:35:00,11,20787784,180926
OK,76,38,947,76,2014-08-01T15:40:00,9,20788233,180926
OK,76,38,947,76,2014-08-01T15:45:00,10,20788682,180926
OK,76,38,947,76,2014-08-01T15:50:00,8,20789131,180926
OK,85,34,947,85,2014-08-01T15:55:00,2,20789580,180926
OK,77,38,947,77,2014-08-01T16:00:00,4,20790029,180926
OK,72,40,947,72,2014-08-01T16:05:00,5,20790478,180926
OK,67,43,947,67,2014-08-01T16:10:00,6,20790927,180926
OK,73,40,947,73,2014-08-01T16:15:00,3,20791376,180926
OK,77,38,947,77,2014-08-01T16:20:00,3,20791825,180926
OK,65,45,947,65,2014-08-01T16:25:00,2,20792274,180926
OK,68,43,947,68,2014-08-01T16:30:00,4,20792723,180926
OK,70,41,947,70,2014-08-01T16:35:00,5,20793172,180926
OK,71,41,947,71,2014-08-01T16:40:00,0,20793621,180926
OK,71,41,947,71,2014-08-01T16:45:00,0,20794070,180926
OK,68,43,947,68,2014-08-01T16:50:00,2,20794519,180926
OK,65,45,947,65,2014-08-01T16:55:00,5,20794968,180926
OK,66,44,947,66,2014-08-01T17:00:00,5,20795417,180926
OK,69,42,947,69,2014-08-01T17:05:00,1,20795866,180926
OK,69,42,947,69,2014-08-01T17:10:00,0,20796315,180926
OK,69,42,947,69,2014-08-01T17:15:00,0,20796764,180926
OK,69,42,947,69,2014-08-01T17:20:00,0,20797213,180926
OK,78,37,947,78,2014-08-01T17:25:00,1,20797662,180926
OK,78,37,947,78,2014-08-01T17:30:00,1,20798111,180926
OK,78,37,947,78,2014-08-01T17:35:00,0,20798560,180926
OK,80,36,947,80,2014-08-01T17:40:00,1,20799009,180926
OK,64,45,947,64,2014-08-01T17:45:00,2,20799458,180926
OK,69,42,947,69,2014-08-01T17:50:00,3,20799907,180926
OK,68,43,947,68,2014-08-01T17:55:00,2,20800356,180926
OK,77,38,947,77,2014-08-01T18:00:00,1,20800805,180926
OK,77,38,947,77,2014-08-01T18:05:00,1,20801254,180926
OK,78,37,947,78,2014-08-01T18:10:00,2,20801703,180926
OK,82,35,947,82,2014-08-01T18:15:00,4,20802152,180926
OK,105,27,947,105,2014-08-01T18:20:00,2,20802601,180926
OK,80,36,947,80,2014-08-01T18:25:00,0,20803050,180926
OK,80,36,947,80,2014-08-01T18:30:00,0,20803499,180926
OK,63,46,947,63,2014-08-01T18:35:00,1,20803948,180926
OK,66,44,947,66,2014-08-01T18:40:00,3,20804397,180926
OK,66,44,947,66,2014-08-01T18:45:00,4,20804846,180926
OK,60,48,947,60,2014-08-01T18:50:00,2,20805295,180926
OK,60,48,947,60,2014-08-01T18:55:00,2,20805744,180926
OK,62,47,947,62,2014-08-01T19:00:00,0,20806193,180926
OK,70,41,947,70,2014-08-01T19:05:00,2,20806642,180926
OK,70,41,947,70,2014-08-01T19:10:00,2,20807091,180926
OK,72,40,947,72,2014-08-01T19:15:00,0,20807540,180926
OK,72,40,947,72,2014-08-01T19:20:00,0,20807989,180926
OK,72,40,947,72,2014-08-01T19:25:00,0,20808438,180926
OK,67,43,947,67,2014-08-01T19:30:00,1,20808887,180926
OK,64,45,947,64,2014-08-01T19:35:00,3,20809336,180926
OK,63,46,947,63,2014-08-01T19:40:00,2,20809785,180926
OK,51,57,947,51,2014-08-01T19:45:00,1,20810234,180926
OK,68,43,947,68,2014-08-01T19:50:00,1,20810683,180926
OK,68,43,947,68,2014-08-01T19:55:00,1,20811132,180926
OK,68,43,947,68,2014-08-01T22:00:00,0,20816861,180926
OK,70,41,947,70,2014-08-02T00:00:00,0,20823300,180926
OK,70,41,947,70,2014-08-02T00:05:00,0,20823749,180926
OK,70,41,947,70,2014-08-02T00:10:00,0,20824198,180926
OK,70,41,947,70,2014-08-02T00:15:00,0,20824647,180926
OK,70,41,947,70,2014-08-02T00:20:00,0,20825096,180926
OK,70,41,947,70,2014-08-02T00:25:00,0,20825545,180926
OK,70,41,947,70,2014-08-02T00:30:00,0,20825994,180926
OK,70,41,947,70,2014-08-02T00:35:00,0,20826443,180926
OK,70,41,947,70,2014-08-02T00:40:00,0,20826892,180926
OK,70,41,947,70,2014-08-02T00:45:00,0,20827341,180926
OK,70,41,947,70,2014-08-02T00:50:00,0,20827790,180926
OK,70,41,947,70,2014-08-02T00:55:00,0,20828239,180926
OK,70,41,947,70,2014-08-02T01:00:00,0,20828688,180926
OK,70,41,947,70,2014-08-02T01:05:00,0,20829137,180926
OK,70,41,947,70,2014-08-02T01:10:00,0,20829586,180926
OK,70,41,947,70,2014-08-02T01:15:00,0,20830035,180926
OK,70,41,947,70,2014-08-02T01:20:00,0,20830484,180926
OK,70,41,947,70,2014-08-02T01:25:00,0,20830933,180926
OK,70,41,947,70,2014-08-02T01:30:00,0,20831382,180926
OK,70,41,947,70,2014-08-02T01:35:00,0,20831831,180926
OK,70,41,947,70,2014-08-02T01:40:00,0,20832280,180926
OK,70,41,947,70,2014-08-02T01:45:00,0,20832729,180926
OK,70,41,947,70,2014-08-02T01:50:00,0,20833178,180926
OK,70,41,947,70,2014-08-02T01:55:00,0,20833627,180926
OK,70,41,947,70,2014-08-02T02:00:00,0,20834076,180926
OK,70,41,947,70,2014-08-02T02:05:00,0,20834525,180926
OK,70,41,947,70,2014-08-02T02:10:00,0,20834974,180926
OK,70,41,947,70,2014-08-02T02:15:00,0,20835423,180926
OK,70,41,947,70,2014-08-02T02:20:00,0,20835872,180926
OK,70,41,947,70,2014-08-02T02:25:00,0,20836321,180926
OK,70,41,947,70,2014-08-02T02:30:00,0,20836770,180926
OK,70,41,947,70,2014-08-02T02:35:00,0,20837219,180926
OK,70,41,947,70,2014-08-02T02:40:00,0,20837668,180926
OK,70,41,947,70,2014-08-02T02:45:00,0,20838117,180926
OK,70,41,947,70,2014-08-02T02:50:00,0,20838566,180926
OK,70,41,947,70,2014-08-02T02:55:00,0,20839015,180926
OK,70,41,947,70,2014-08-02T03:00:00,0,20839464,180926
OK,70,41,947,70,2014-08-02T03:05:00,0,20839913,180926
OK,70,41,947,70,2014-08-02T03:10:00,0,20840362,180926
OK,70,41,947,70,2014-08-02T03:15:00,0,20840811,180926
OK,70,41,947,70,2014-08-02T03:20:00,0,20841260,180926
OK,70,41,947,70,2014-08-02T03:25:00,0,20841709,180926
OK,70,41,947,70,2014-08-02T03:30:00,0,20842158,180926
OK,70,41,947,70,2014-08-02T03:35:00,0,20842607,180926
OK,70,41,947,70,2014-08-02T03:40:00,0,20843056,180926
OK,70,41,947,70,2014-08-02T03:45:00,0,20843505,180926
OK,70,41,947,70,2014-08-02T03:50:00,0,20843954,180926
OK,54,54,947,54,2014-08-02T03:55:00,2,20844403,180926
OK,72,40,947,72,2014-08-02T06:00:00,0,20851857,180926
OK,72,40,947,72,2014-08-02T06:05:00,0,20852306,180926
OK,69,42,947,69,2014-08-02T06:10:00,1,20852755,180926
OK,69,42,947,69,2014-08-02T06:15:00,3,20853204,180926
OK,58,50,947,58,2014-08-02T06:20:00,2,20853653,180926
OK,45,65,947,45,2014-08-02T06:25:00,0,20854102,180926
OK,67,43,947,67,2014-08-02T06:30:00,2,20854551,180926
OK,63,46,947,63,2014-08-02T06:35:00,4,20855000,180926
OK,62,47,947,62,2014-08-02T06:40:00,2,20855449,180926
OK,61,47,947,61,2014-08-02T06:45:00,2,20855898,180926
OK,82,35,947,82,2014-08-02T06:50:00,1,20856347,180926
OK,82,35,947,82,2014-08-02T06:55:00,0,20856796,180926
OK,82,35,947,82,2014-08-02T07:00:00,0,20857245,180926
OK,82,35,947,82,2014-08-02T07:05:00,0,20857694,180926
OK,70,41,947,70,2014-08-02T07:10:00,1,20858143,180926
OK,70,41,947,70,2014-08-02T07:15:00,1,20858592,180926
OK,65,45,947,65,2014-08-02T07:20:00,3,20859041,180926
OK,73,40,947,73,2014-08-02T07:25:00,4,20859490,180926
OK,72,40,947,72,2014-08-02T07:30:00,6,20859939,180926
OK,71,41,947,71,2014-08-02T07:35:00,5,20860388,180926
OK,84,34,947,84,2014-08-02T07:40:00,2,20860837,180926
OK,74,39,947,74,2014-08-02T07:45:00,3,20861286,180926
OK,84,34,947,84,2014-08-02T07:50:00,1,20861735,180926
OK,77,38,947,77,2014-08-02T07:55:00,1,20862184,180926
OK,77,38,947,77,2014-08-02T08:00:00,1,20862633,180926
OK,76,38,947,76,2014-08-02T08:05:00,1,20863082,180926
OK,72,40,947,72,2014-08-02T08:10:00,5,20863531,180926
OK,72,40,947,72,2014-08-02T08:15:00,5,20863980,180926
OK,64,45,947,64,2014-08-02T08:20:00,3,20864429,180926
OK,73,40,947,73,2014-08-02T08:25:00,4,20864878,180926
OK,71,41,947,71,2014-08-02T08:30:00,5,20865327,180926
OK,67,43,947,67,2014-08-02T08:35:00,3,20865776,180926
OK,57,51,947,57,2014-08-02T08:40:00,1,20866225,180926
OK,61,47,947,61,2014-08-02T08:45:00,1,20866674,180926
OK,64,45,947,64,2014-08-02T08:50:00,4,20867123,180926
OK,71,41,947,71,2014-08-02T08:55:00,4,20867572,180926
OK,69,42,947,69,2014-08-02T09:00:00,4,20868021,180926
OK,89,32,947,89,2014-08-02T09:05:00,2,20868470,180926
OK,80,36,947,80,2014-08-02T09:10:00,2,20868919,180926
OK,101,28,947,101,2014-08-02T09:15:00,3,20869368,180926
OK,101,28,947,101,2014-08-02T09:20:00,5,20869817,180926
OK,100,29,947,100,2014-08-02T09:25:00,7,20870266,180926
OK,92,31,947,92,2014-08-02T09:30:00,5,20870715,180926
OK,93,31,947,93,2014-08-02T09:35:00,4,20871164,180926
OK,96,30,947,96,2014-08-02T09:40:00,5,20871613,180926
OK,100,29,947,100,2014-08-02T09:45:00,7,20872062,180926
OK,97,30,947,97,2014-08-02T09:50:00,3,20872511,180926
OK,95,30,947,95,2014-08-02T09:55:00,3,20872960,180926
OK,94,31,947,94,2014-08-02T10:00:00,4,20873409,180926
OK,94,31,947,94,2014-08-02T10:05:00,1,20873858,180926
OK,94,31,947,94,2014-08-02T10:10:00,0,20874307,180926
OK,93,31,947,93,2014-08-02T10:15:00,3,20874756,180926
OK,98,29,947,98,2014-08-02T10:20:00,2,20875205,180926
OK,112,26,947,112,2014-08-02T10:25:00,3,20875654,180926
OK,101,28,947,101,2014-08-02T10:30:00,5,20876103,180926
OK,101,28,947,101,2014-08-02T10:35:00,6,20876552,180926
OK,91,32,947,91,2014-08-02T10:40:00,5,20877001,180926
OK,91,32,947,91,2014-08-02T10:45:00,3,20877450,180926
OK,77,38,947,77,2014-08-02T10:50:00,1,20877899,180926
OK,89,32,947,89,2014-08-02T10:55:00,4,20878348,180926
OK,96,30,947,96,2014-08-02T11:00:00,6,20878797,180926
OK,96,30,947,96,2014-08-02T11:05:00,6,20879246,180926
OK,99,29,947,99,2014-08-02T11:10:00,6,20879695,180926
OK,97,30,947,97,2014-08-02T11:15:00,6,20880144,180926
OK,86,34,947,86,2014-08-02T11:20:00,3,20880593,180926
OK,112,26,947,112,2014-08-02T11:25:00,1,20881042,180926
OK,100,29,947,100,2014-08-02T11:30:00,4,20881491,180926
OK,88,33,947,88,2014-08-02T11:35:00,2,20881940,180926
OK,101,28,947,101,2014-08-02T11:40:00,5,20882389,180926
OK,101,28,947,101,2014-08-02T11:45:00,5,20882838,180926
OK,99,29,947,99,2014-08-02T11:50:00,3,20883287,180926
OK,94,31,947,94,2014-08-02T11:55:00,1,20883736,180926
OK,106,27,947,106,2014-08-02T12:00:00,1,20884185,180926
OK,106,27,947,106,2014-08-02T12:05:00,0,20884634,180926
OK,106,27,947,106,2014-08-02T12:10:00,0,20885083,180926
OK,92,31,947,92,2014-08-02T12:15:00,2,20885532,180926
OK,95,30,947,95,2014-08-02T12:20:00,5,20885981,180926
OK,104,28,947,104,2014-08-02T12:25:00,3,20886430,180926
OK,102,28,947,102,2014-08-02T12:30:00,2,20886879,180926
OK,102,28,947,102,2014-08-02T12:35:00,1,20887328,180926
OK,91,32,947,91,2014-08-02T12:40:00,4,20887777,180926
OK,81,36,947,81,2014-08-02T12:45:00,3,20888226,180926
OK,68,43,947,68,2014-08-02T12:50:00,1,20888675,180926
OK,66,44,947,66,2014-08-02T12:55:00,3,20889124,180926
OK,81,36,947,81,2014-08-02T13:00:00,5,20889573,180926
OK,71,41,947,71,2014-08-02T13:05:00,7,20890022,180926
OK,70,41,947,70,2014-08-02T13:10:00,5,20890471,180926
OK,69,42,947,69,2014-08-02T13:15:00,4,20890920,180926
OK,73,40,947,73,2014-08-02T13:20:00,6,20891369,180926
OK,69,42,947,69,2014-08-02T13:25:00,6,20891818,180926
OK,69,42,947,69,2014-08-02T13:30:00,3,20892267,180926
OK,78,37,947,78,2014-08-02T13:35:00,2,20892716,180926
OK,76,38,947,76,2014-08-02T13:40:00,3,20893165,180926
OK,74,39,947,74,2014-08-02T13:45:00,5,20893614,180926
OK,74,39,947,74,2014-08-02T13:50:00,3,20894063,180926
OK,82,35,947,82,2014-08-02T13:55:00,4,20894512,180926
OK,72,40,947,72,2014-08-02T14:00:00,6,20894961,180926
OK,74,39,947,74,2014-08-02T14:05:00,5,20895410,180926
OK,74,39,947,74,2014-08-02T14:10:00,6,20895859,180926
OK,69,42,947,69,2014-08-02T14:15:00,6,20896308,180926
OK,66,44,947,66,2014-08-02T14:20:00,4,20896757,180926
OK,73,40,947,73,2014-08-02T14:25:00,4,20897206,180926
OK,74,39,947,74,2014-08-02T14:30:00,3,20897655,180926
OK,61,47,947,61,2014-08-02T14:35:00,3,20898104,180926
OK,70,41,947,70,2014-08-02T14:40:00,4,20898553,180926
OK,71,41,947,71,2014-08-02T14:45:00,6,20899002,180926
OK,72,40,947,72,2014-08-02T14:50:00,9,20899451,180926
OK,78,37,947,78,2014-08-02T14:55:00,3,20899900,180926
OK,69,42,947,69,2014-08-02T15:00:00,6,20900349,180926
OK,67,43,947,67,2014-08-02T15:05:00,2,20900798,180926
OK,90,32,947,90,2014-08-02T15:10:00,2,20901247,180926
OK,70,41,947,70,2014-08-02T15:15:00,5,20901696,180926
OK,67,43,947,67,2014-08-02T15:20:00,2,20902145,180926
OK,70,41,947,70,2014-08-02T15:25:00,2,20902594,180926
OK,75,39,947,75,2014-08-02T15:30:00,4,20903043,180926
OK,69,42,947,69,2014-08-02T15:35:00,4,20903492,180926
OK,98,29,947,98,2014-08-02T15:40:00,2,20903941,180926
OK,131,22,947,131,2014-08-02T15:45:00,1,20904390,180926
OK,71,41,947,71,2014-08-02T15:50:00,3,20904839,180926
OK,122,23,947,122,2014-08-02T15:55:00,3,20905288,180926
OK,73,40,947,73,2014-08-02T16:00:00,2,20905737,180926
OK,73,40,947,73,2014-08-02T16:05:00,3,20906186,180926
OK,85,34,947,85,2014-08-02T16:10:00,2,20906635,180926
OK,71,41,947,71,2014-08-02T16:15:00,6,20907084,180926
OK,63,46,947,63,2014-08-02T16:20:00,4,20907533,180926
OK,62,47,947,62,2014-08-02T16:25:00,1,20907982,180926
OK,74,39,947,74,2014-08-02T16:30:00,5,20908431,180926
OK,77,38,947,77,2014-08-02T16:35:00,0,20908880,180926
OK,93,31,947,93,2014-08-02T16:40:00,1,20909329,180926
OK,72,40,947,72,2014-08-02T16:45:00,2,20909778,180926
OK,76,38,947,76,2014-08-02T16:50:00,2,20910227,180926
OK,70,41,947,70,2014-08-02T16:55:00,2,20910676,180926
OK,53,55,947,53,2014-08-02T17:00:00,1,20911125,180926
OK,53,55,947,53,2014-08-02T17:05:00,1,20911574,180926
OK,96,30,947,96,2014-08-02T17:10:00,2,20912023,180926
OK,76,38,947,76,2014-08-02T17:15:00,3,20912472,180926
OK,64,45,947,64,2014-08-02T17:20:00,3,20912921,180926
OK,66,44,947,66,2014-08-02T17:25:00,1,20913370,180926
OK,75,39,947,75,2014-08-02T17:30:00,1,20913819,180926
OK,74,39,947,74,2014-08-02T17:35:00,2,20914268,180926
OK,70,41,947,70,2014-08-02T17:40:00,2,20914717,180926
OK,68,43,947,68,2014-08-02T17:45:00,3,20915166,180926
OK,71,41,947,71,2014-08-02T17:50:00,1,20915615,180926
OK,62,47,947,62,2014-08-02T17:55:00,2,20916064,180926
OK,63,46,947,63,2014-08-02T18:00:00,1,20916513,180926
OK,60,48,947,60,2014-08-02T18:05:00,2,20916962,180926
OK,67,43,947,67,2014-08-02T18:10:00,5,20917411,180926
OK,67,43,947,67,2014-08-02T18:15:00,4,20917860,180926
OK,67,43,947,67,2014-08-02T18:20:00,4,20918309,180926
OK,68,43,947,68,2014-08-02T18:25:00,4,20918758,180926
OK,68,43,947,68,2014-08-02T18:30:00,0,20919207,180926
OK,68,43,947,68,2014-08-02T18:35:00,0,20919656,180926
OK,68,43,947,68,2014-08-02T18:40:00,0,20920105,180926
OK,68,43,947,68,2014-08-02T18:45:00,0,20920554,180926
OK,67,43,947,67,2014-08-02T18:50:00,6,20921003,180926
OK,71,41,947,71,2014-08-02T18:55:00,7,20921452,180926
OK,72,40,947,72,2014-08-02T19:00:00,4,20921901,180926
OK,69,42,947,69,2014-08-02T19:05:00,4,20922350,180926
OK,70,41,947,70,2014-08-02T19:10:00,5,20922799,180926
OK,62,47,947,62,2014-08-02T19:15:00,4,20923248,180926
OK,54,54,947,54,2014-08-02T19:20:00,1,20923697,180926
OK,74,39,947,74,2014-08-02T19:25:00,1,20924146,180926
OK,74,39,947,74,2014-08-02T19:30:00,0,20924595,180926
OK,67,43,947,67,2014-08-02T19:35:00,2,20925044,180926
OK,63,46,947,63,2014-08-02T19:40:00,1,20925493,180926
OK,57,51,947,57,2014-08-02T19:45:00,1,20925942,180926
OK,61,47,947,61,2014-08-02T19:50:00,2,20926391,180926
OK,71,41,947,71,2014-08-02T19:55:00,1,20926840,180926
OK,71,41,947,71,2014-08-02T20:00:00,1,20927289,180926
OK,71,41,947,71,2014-08-02T20:05:00,0,20927738,180926
OK,71,41,947,71,2014-08-02T20:10:00,0,20928187,180926
OK,93,31,947,93,2014-08-02T20:15:00,1,20928636,180926
OK,76,38,947,76,2014-08-02T20:20:00,2,20929085,180926
OK,60,48,947,60,2014-08-02T20:25:00,1,20929534,180926
OK,72,40,947,72,2014-08-02T20:30:00,1,20929983,180926
OK,61,47,947,61,2014-08-02T20:35:00,1,20930432,180926
OK,63,46,947,63,2014-08-02T20:40:00,1,20930881,180926
OK,63,46,947,63,2014-08-02T20:45:00,1,20931330,180926
OK,63,46,947,63,2014-08-02T20:50:00,0,20931779,180926
OK,63,46,947,63,2014-08-02T20:55:00,0,20932228,180926
OK,63,46,947,63,2014-08-02T21:00:00,0,20932677,180926
OK,63,46,947,63,2014-08-02T21:05:00,0,20933126,180926
OK,71,41,947,71,2014-08-02T21:10:00,3,20933575,180926
OK,101,28,947,101,2014-08-02T21:15:00,2,20934024,180926
OK,101,28,947,101,2014-08-02T21:20:00,0,20934473,180926
OK,68,43,947,68,2014-08-02T21:25:00,1,20934922,180926
OK,68,43,947,68,2014-08-02T21:30:00,0,20935371,180926
OK,60,48,947,60,2014-08-02T21:35:00,3,20935820,180926
OK,62,47,947,62,2014-08-02T21:40:00,2,20936269,180926
OK,65,45,947,65,2014-08-02T21:45:00,0,20936718,180926
OK,65,45,947,65,2014-08-02T21:50:00,0,20937167,180926
OK,65,45,947,65,2014-08-02T21:55:00,0,20937616,180926
OK,65,45,947,65,2014-08-02T22:00:00,0,20938065,180926
OK,65,45,947,65,2014-08-02T22:05:00,0,20938514,180926
OK,65,45,947,65,2014-08-02T22:10:00,0,20938963,180926
OK,68,43,947,68,2014-08-02T22:15:00,0,20939412,180926
OK,68,43,947,68,2014-08-02T22:20:00,0,20939861,180926
OK,47,62,947,47,2014-08-02T22:25:00,1,20940310,180926
OK,70,41,947,70,2014-08-02T22:30:00,3,20940759,180926
OK,68,43,947,68,2014-08-02T22:35:00,3,20941208,180926
OK,67,43,947,67,2014-08-02T22:40:00,1,20941657,180926
OK,50,58,947,50,2014-08-02T22:45:00,1,20942106,180926
OK,50,58,947,50,2014-08-02T22:50:00,0,20942555,180926
OK,50,58,947,50,2014-08-02T22:55:00,0,20943004,180926
OK,50,58,947,50,2014-08-02T23:00:00,0,20943453,180926
OK,50,58,947,50,2014-08-02T23:10:00,0,20943902,180926
OK,50,58,947,50,2014-08-02T23:15:00,0,20944351,180926
OK,50,58,947,50,2014-08-02T23:20:00,0,20944800,180926
OK,58,50,947,58,2014-08-02T23:25:00,1,20945249,180926
OK,61,47,947,61,2014-08-02T23:30:00,1,20945698,180926
OK,45,65,947,45,2014-08-02T23:35:00,1,20946147,180926
OK,45,65,947,45,2014-08-02T23:40:00,1,20946596,180926
OK,45,65,947,45,2014-08-02T23:45:00,0,20947045,180926
OK,45,65,947,45,2014-08-02T23:50:00,0,20947494,180926
OK,45,65,947,45,2014-08-02T23:55:00,0,20947943,180926
OK,45,65,947,45,2014-08-03T00:00:00,0,20948392,180926
OK,45,65,947,45,2014-08-03T00:05:00,0,20948841,180926
OK,45,65,947,45,2014-08-03T00:10:00,0,20949289,180926
OK,95,30,947,95,2014-08-03T00:15:00,1,20949738,180926
OK,95,30,947,95,2014-08-03T00:20:00,1,20950187,180926
OK,95,30,947,95,2014-08-03T00:25:00,0,20950636,180926
OK,95,30,947,95,2014-08-03T00:30:00,0,20951085,180926
OK,95,30,947,95,2014-08-03T00:35:00,0,20951534,180926
OK,95,30,947,95,2014-08-03T00:40:00,0,20951983,180926
OK,95,30,947,95,2014-08-03T00:45:00,0,20952432,180926
OK,95,30,947,95,2014-08-03T00:50:00,0,20952881,180926
OK,95,30,947,95,2014-08-03T00:55:00,0,20953330,180926
OK,52,56,947,52,2014-08-03T01:00:00,1,20953779,180926
OK,52,56,947,52,2014-08-03T01:05:00,0,20954228,180926
OK,52,56,947,52,2014-08-03T01:10:00,0,20954677,180926
OK,52,56,947,52,2014-08-03T01:15:00,0,20955126,180926
OK,52,56,947,52,2014-08-03T01:20:00,0,20955575,180926
OK,52,56,947,52,2014-08-03T01:25:00,0,20956024,180926
OK,52,56,947,52,2014-08-03T01:30:00,0,20956473,180926
OK,52,56,947,52,2014-08-03T01:35:00,0,20956922,180926
OK,71,41,947,71,2014-08-03T01:40:00,1,20957371,180926
OK,71,41,947,71,2014-08-03T01:45:00,1,20957820,180926
OK,71,41,947,71,2014-08-03T01:50:00,0,20958269,180926
OK,71,41,947,71,2014-08-03T01:55:00,0,20958718,180926
OK,71,41,947,71,2014-08-03T02:00:00,0,20959167,180926
OK,71,41,947,71,2014-08-03T02:05:00,0,20959616,180926
OK,66,44,947,66,2014-08-03T02:10:00,1,20960065,180926
OK,66,44,947,66,2014-08-03T02:15:00,0,20960514,180926
OK,66,44,947,66,2014-08-03T02:20:00,0,20960963,180926